Last 6 Hours

AM-Summit 8643' (Ward Mt.)

15 Minute Data | America/Los_Angeles
as of 1/23/22 4:11 AM PST
Date & Time Temp (°F) RH (%) Dew Pt (°F) Wet Bulb (°F) Wind Dir (°) Wind Spd (mph) Wind Gust (mph) WindChill (°F)
1/23/22 - 0400 21.9 91 19.7 21.2 ENE | 61 48.0 57.9 0.5
1/23/22 - 0345 22.0 92 20.1 21.3 ENE | 60 48.9 55.3 0.3
1/23/22 - 0330 21.9 92 19.9 21.2 ENE | 66 49.7 57.7 0.1
1/23/22 - 0315 21.9 91 19.8 21.1 ENE | 62 50.2 60.7 0.3
1/23/22 - 0300 22.1 89 19.3 21.1 ENE | 65 50.8 57.8 0.2
1/23/22 - 0245 22.1 89 19.3 21.1 ENE | 63 51.8 58.5 -0.1
1/23/22 - 0230 21.9 90 19.4 21.0 ENE | 63 50.6 57.8 -0.0
1/23/22 - 0215 21.9 89 19.0 20.9 ENE | 68 53.2 60.4 -0.5
1/23/22 - 0200 21.8 89 19.0 20.8 ENE | 70 53.4 57.4 -0.6
1/23/22 - 0145 21.9 89 19.1 20.9 ENE | 66 54.1 62.5 -0.5
1/23/22 - 0130 22.0 87 18.7 20.8 ENE | 65 55.0 67.1 -0.4
1/23/22 - 0115 22.3 83 18.0 20.8 ENE | 67 52.1 62.9 0.1
1/23/22 - 0100 22.2 86 18.6 20.9 ENE | 66 52.3 58.2 0.2
1/23/22 - 0045 22.4 86 18.8 21.1 NE | 56 53.4 60.8 0.4
1/23/22 - 0030 22.5 86 18.8 21.2 NE | 56 53.0 60.2 0.4
1/23/22 - 0015 22.7 83 18.4 21.1 ENE | 57 55.8 67.5 0.2
1/23/22 - 0000 22.6 86 19.0 21.3 NE | 52 59.0 66.6 -0.4
1/22/22 - 2345 22.3 86 18.8 21.1 NE | 56 57.3 68.6 -0.4
1/22/22 - 2330 22.3 87 18.9 21.1 NE | 56 59.2 71.3 -0.5
1/22/22 - 2315 22.6 86 19.1 21.4 NE | 54 61.0 75.3 -0.6
1/22/22 - 2300 22.6 86 19.0 21.3 NE | 54 61.5 72.3 -0.8
1/22/22 - 2245 22.7 86 19.1 21.4 NE | 54 63.8 77.4 -0.9
1/22/22 - 2230 22.8 85 18.9 21.4 NE | 53 69.3 81.5 -1.3
1/22/22 - 2215 22.8 84 18.6 21.3 NE | 52 70.0 84.1 -1.5
Max 22.8 92 20.1 21.4 - 70.0 84.1 0.5
Avg 22.3 87 19.1 21.1 - 55.6 65.0 -0.2
Min 21.8 83 18.0 20.8 - 48.0 55.3 -1.5